[[{"header":{"parameterUnit":"m.s-1","parameterCategory":1,"la1":30.2991,"la2":30.254,"lo1":-89.0895,"lo2":-89.0444,"dy":0.0017,"dx":0.0017,"nx":28,"ny":28,"refTime":"2025-12-26T09:00:00:Z","depth":0,"parameterNumber":2,"parameterNumberName":"U-component_of_WINDS"},"data":[0,0,0,0,0,0,0,0,0,0,0,0,0,0,0,0,0,0,0,0,0,0,0,0,0,0,0,0,0,0,0,0,0,0,0,0,0,0,0,0,0,0,0,0,0,0,0,0,0,0,0,0,0,0,0,0,0,0,1.1842,1.1842,0,1.1899,1.19,1.19,1.1895,1.1895,1.1894,1.1893,1.1955,1.1958,1.196,0,0,0,0,0,0,0,0,0,0,0,0,0,1.1731,1.1733,1.1842,1.1842,1.1843,1.1899,1.19,1.1901,1.1896,1.1895,1.1893,1.1892,1.1955,1.1957,1.196,0,0,0,0,0,0,0,0,0,0,0,0,0,1.1783,1.1734,1.1841,1.1847,1.1848,1.1899,1.19,1.1901,1.1896,1.1895,1.1893,1.1892,1.1954,1.1957,1.1961,1.201,0,0,1.1972,1.1974,0,0,0,0,0,0,0,0,1.178,1.1787,1.1846,1.1847,1.1848,1.1889,1.1884,1.1938,1.1896,1.1878,1.1893,1.1891,1.1934,1.194,1.1953,1.2013,1.2016,1.1973,1.1975,1.1976,1.1977,0,0,0,0,0,0,0,1.1776,1.1785,1.1864,1.1847,1.1848,1.1848,1.1854,1.1894,1.1913,1.1879,1.1879,1.1886,1.1935,1.195,1.1955,1.2017,1.1972,1.1976,1.1978,1.198,1.2121,1.2123,0,0,0,0,0,0,1.1771,1.1782,1.1863,1.1866,1.181,1.1851,1.1858,1.1877,1.1913,1.1917,1.1887,1.1885,1.1944,1.1951,1.1957,1.2018,1.1976,1.198,1.1982,1.212,1.2122,1.2123,0,0,0,0,0,0,1.1769,1.1778,1.186,1.1824,1.1834,1.1854,1.1876,1.1879,1.1894,1.1918,1.1922,1.1898,1.1943,1.1952,1.1997,1.202,1.1982,1.1985,1.2118,1.2121,1.2123,1.214,0,0,0,0,0,0,1.1765,1.1777,1.1796,1.1824,1.1836,1.1898,1.1878,1.1881,1.19,1.1898,1.193,1.1934,1.1943,1.1992,1.2001,1.2025,1.1988,1.2116,1.2119,1.2122,1.2138,1.2143,1.2147,0,0,0,0,0,1.1762,1.1799,1.1797,1.1806,1.1859,1.19,1.1907,1.1915,1.1902,1.1921,1.1937,1.1933,1.2016,1.1996,1.2007,1.2032,1.2115,1.2118,1.2122,1.2135,1.2142,1.2147,0,0,0,0,0,0,1.1774,1.1803,1.18,1.1848,1.1871,1.1899,1.1923,1.1921,1.195,1.1947,1.1958,1.1965,1.2011,1.2026,1.2003,1.2082,1.2064,1.207,1.2071,1.2077,1.2081,1.2077,1.1991,0,0,0,0,0,1.1781,1.1811,1.1835,1.1875,1.1886,1.1903,1.1921,1.1925,1.195,1.196,1.1979,1.2005,1.2037,1.2058,1.2088,1.214,1.2147,1.2162,1.2167,1.2171,1.2176,1.2205,1.2212,1.2135,1.2135,1.2135,0,0,1.1799,1.1818,1.1836,1.1878,1.1896,1.1927,1.1911,1.1945,1.1968,1.1966,1.201,1.2025,1.2054,1.2102,1.2125,1.2116,1.2199,1.2175,1.2178,1.2181,1.2209,1.2216,1.2223,1.2137,1.2137,1.2136,0,0,1.1846,1.1863,1.1898,1.1917,1.1945,1.1956,1.1964,1.1992,1.2001,1.2045,1.2044,1.2073,1.2127,1.2148,1.2166,1.2222,1.222,1.2232,1.2257,1.2285,1.2291,1.2297,1.2317,1.2324,1.2236,1.2237,1.2237,0,1.1864,1.191,1.1917,1.1951,1.1969,1.1967,1.2004,1.2022,1.2059,1.2073,1.2062,1.2131,1.215,1.2204,1.2218,1.2232,1.2243,1.2228,1.2289,1.2295,1.23,1.232,1.2328,1.2238,1.2238,1.2237,1.2237,0,1.1931,1.1963,1.1988,1.2023,1.2044,1.2079,1.2093,1.2114,1.2117,1.2129,1.2174,1.2197,1.2233,1.2246,1.2249,1.2301,1.2295,1.2287,1.2269,1.2309,1.2328,1.2335,1.224,1.2239,1.2239,1.2238,0,0,1.1987,1.2025,1.2035,1.2051,1.2081,1.2107,1.2142,1.2176,1.2195,1.222,1.2251,1.2297,1.229,1.231,1.2316,1.2341,1.2384,1.233,1.2331,1.234,1.2443,1.245,1.2458,1.2383,1.2385,1.2386,1.2441,0,1.2038,1.2099,1.2107,1.2162,1.2192,1.2191,1.2222,1.2245,1.2258,1.2286,1.23,1.2333,1.2321,1.2333,1.2357,1.2374,1.2405,1.237,1.2413,1.2415,1.2406,1.2468,1.2474,1.2526,1.2449,1.245,1.2451,0,1.2105,1.2132,1.219,1.2217,1.223,1.2258,1.229,1.2316,1.2343,1.235,1.2373,1.2376,1.2414,1.2393,1.2447,1.2422,1.244,1.2451,1.2453,1.2458,1.2435,1.2475,1.2542,1.255,1.2462,1.2461,1.246,0,1.2141,1.2192,1.2233,1.2247,1.228,1.2299,1.2314,1.2339,1.2359,1.2387,1.24,1.2433,1.2451,1.2477,1.2489,1.2473,1.2542,1.2522,1.255,1.255,1.2565,1.2564,1.2637,1.2576,1.2576,1.2576,1.2575,0,1.2197,1.2233,1.225,1.2275,1.2316,1.2325,1.2365,1.2379,1.2401,1.243,1.2432,1.2459,1.2473,1.2503,1.2513,1.2556,1.2564,1.2572,1.2574,1.2572,1.2571,1.2585,1.2582,1.2578,1.2577,1.2577,1.2576,0,1.2245,1.2257,1.2302,1.2329,1.2337,1.2366,1.2389,1.2415,1.2427,1.2464,1.2473,1.2492,1.2528,1.2542,1.2586,1.2593,1.2642,1.2642,1.2633,1.2634,1.2661,1.2658,1.2745,1.2757,1.2688,1.2688,1.2689,0,1.228,1.2307,1.2337,1.2356,1.2371,1.2402,1.2422,1.2432,1.2454,1.2486,1.2508,1.2543,1.2572,1.2629,1.2648,1.2681,1.2682,1.271,1.2687,1.2684,1.2683,1.2681,1.2685,1.2714,1.2715,1.2715,1.2716,0,1.2341,1.2346,1.2374,1.2405,1.2429,1.2454,1.2479,1.2495,1.2509,1.2533,1.2569,1.2591,1.2635,1.2671,1.2705,1.2722,1.2722,1.2723,1.2731,1.273,1.2724,1.2728,1.2645,1.2721,1.272,1.272,1.272,1.272,1.2384,1.2408,1.2433,1.2465,1.2484,1.2507,1.2533,1.2548,1.2577,1.2613,1.2618,1.2657,1.2683,1.273,1.2748,1.2779,1.2772,1.2784,1.2787,1.279,1.2792,1.2718,1.2785,1.2785,1.2785,1.2785,1.2785,0,1.2446,1.2462,1.2491,1.2525,1.255,1.2547,1.2574,1.2596,1.2629,1.2654,1.2682,1.2723,1.2758,1.2779,1.2814,1.2835,1.2836,1.2844,1.2843,1.2847,1.2796,1.2786,1.2843,1.2843,1.2843,1.2843,1.2843,1.2843,1.2481,1.2522,1.253,1.2582,1.2598,1.2635,1.265,1.2672,1.2692,1.2738,1.2766,1.2779,1.2803,1.284,1.2871,1.2877,1.289,1.2899,1.2904,1.2856,1.285,1.2845,1.2835,1.2901,1.2901,1.2952,1.2953,1.2953]},{"header":{"parameterUnit":"m.s-1","parameterCategory":1,"la1":30.2991,"la2":30.254,"lo1":-89.0895,"lo2":-89.0444,"dy":0.0017,"dx":0.0017,"nx":28,"ny":28,"refTime":"2025-12-26T09:00:00:Z","depth":0,"parameterNumber":3,"parameterNumberName":"V-component_of_WINDS"},"data":[0,0,0,0,0,0,0,0,0,0,0,0,0,0,0,0,0,0,0,0,0,0,0,0,0,0,0,0,0,0,0,0,0,0,0,0,0,0,0,0,0,0,0,0,0,0,0,0,0,0,0,0,0,0,0,0,0,0,2.0774,2.0774,0,2.0815,2.0816,2.0816,2.0812,2.0811,2.0811,2.081,2.0851,2.0853,2.0854,0,0,0,0,0,0,0,0,0,0,0,0,0,2.0688,2.069,2.0774,2.0774,2.0775,2.0815,2.0816,2.0816,2.0812,2.0811,2.0811,2.081,2.085,2.0852,2.0854,0,0,0,0,0,0,0,0,0,0,0,0,0,2.0727,2.069,2.0774,2.0778,2.0778,2.0815,2.0816,2.0817,2.0812,2.0811,2.081,2.081,2.085,2.0852,2.0855,2.089,0,0,2.0862,2.0864,0,0,0,0,0,0,0,0,2.0725,2.073,2.0776,2.0777,2.0778,2.0808,2.0801,2.0841,2.0813,2.0799,2.081,2.0809,2.0837,2.0841,2.0851,2.0892,2.0893,2.0863,2.0864,2.0865,2.0866,0,0,0,0,0,0,0,2.0722,2.0728,2.079,2.0777,2.0778,2.0776,2.0781,2.0808,2.0823,2.08,2.08,2.0805,2.0837,2.0848,2.0851,2.0894,2.0863,2.0865,2.0866,2.0867,2.0965,2.0966,0,0,0,0,0,0,2.0719,2.0726,2.0789,2.0791,2.0749,2.0779,2.0784,2.0799,2.0823,2.0826,2.0806,2.0805,2.0844,2.0849,2.0853,2.0895,2.0865,2.0868,2.0869,2.0964,2.0965,2.0967,0,0,0,0,0,0,2.0717,2.0724,2.0787,2.0759,2.0767,2.0781,2.0799,2.08,2.0811,2.0827,2.083,2.0815,2.0844,2.0849,2.0881,2.0897,2.0869,2.0871,2.0963,2.0965,2.0966,2.0981,0,0,0,0,0,0,2.0714,2.0724,2.0738,2.0759,2.0768,2.0815,2.08,2.0802,2.0816,2.0815,2.0836,2.0838,2.0843,2.0877,2.0883,2.09,2.0873,2.0961,2.0964,2.0966,2.0979,2.0983,2.0986,0,0,0,0,0,2.0711,2.074,2.0739,2.0746,2.0786,2.0816,2.0821,2.0827,2.0817,2.0831,2.0841,2.0837,2.0894,2.088,2.0887,2.0905,2.0961,2.0963,2.0965,2.0977,2.0982,2.0986,0,0,0,0,0,0,2.072,2.0743,2.0742,2.0778,2.0795,2.0815,2.0833,2.0832,2.0851,2.085,2.0855,2.086,2.0892,2.0901,2.0885,2.094,2.0926,2.093,2.0932,2.0937,2.094,2.0938,2.0875,0,0,0,0,0,2.0726,2.0749,2.0768,2.0798,2.0807,2.0818,2.0831,2.0835,2.0852,2.0859,2.0872,2.0888,2.091,2.0924,2.0944,2.098,2.0984,2.0995,2.0999,2.1002,2.1005,2.1024,2.1029,2.0975,2.0975,2.0975,0,0,2.0739,2.0754,2.0768,2.08,2.0814,2.0837,2.0824,2.0849,2.0866,2.0863,2.0893,2.0903,2.0922,2.0955,2.0971,2.0964,2.1021,2.1005,2.1007,2.1009,2.1027,2.1033,2.1037,2.0976,2.0976,2.0976,0,0,2.0774,2.0788,2.0815,2.0829,2.085,2.0857,2.0864,2.0884,2.089,2.0921,2.0919,2.0938,2.0975,2.0989,2.1001,2.104,2.1037,2.1046,2.1065,2.1084,2.1088,2.1092,2.1106,2.1111,2.105,2.105,2.105,0,2.0788,2.0823,2.0829,2.0854,2.0868,2.0866,2.0893,2.0906,2.0932,2.0941,2.0933,2.0979,2.0992,2.1029,2.1038,2.1048,2.1055,2.1045,2.1087,2.1091,2.1095,2.1108,2.1113,2.1051,2.1051,2.1051,2.105,0,2.0839,2.0863,2.0882,2.0908,2.0923,2.0949,2.0958,2.0973,2.0975,2.0983,2.1013,2.1028,2.1052,2.106,2.1062,2.1097,2.1092,2.1086,2.1072,2.1101,2.1114,2.1119,2.1052,2.1052,2.1052,2.1051,0,0,2.0882,2.091,2.0917,2.0929,2.0951,2.097,2.0995,2.1018,2.1031,2.1048,2.1069,2.11,2.1094,2.1107,2.111,2.1126,2.1156,2.1118,2.1118,2.1124,2.1196,2.1201,2.1207,2.1154,2.1155,2.1156,2.1194,0,2.092,2.0965,2.0971,2.1011,2.1033,2.1031,2.1053,2.1069,2.1077,2.1096,2.1104,2.1126,2.1116,2.1124,2.114,2.1149,2.1171,2.1147,2.1174,2.1175,2.117,2.1214,2.122,2.1255,2.1199,2.12,2.1201,0,2.097,2.099,2.1033,2.1052,2.1061,2.1081,2.1103,2.1121,2.1138,2.1143,2.1157,2.1158,2.1183,2.1167,2.1202,2.1185,2.1196,2.1202,2.1204,2.1207,2.119,2.1218,2.1266,2.1272,2.1209,2.1208,2.1208,0,2.0998,2.1035,2.1065,2.1075,2.1098,2.1112,2.1121,2.1138,2.1151,2.117,2.1178,2.1199,2.1211,2.1226,2.1232,2.122,2.1266,2.1251,2.127,2.127,2.128,2.128,2.1331,2.1287,2.1287,2.1286,2.1286,0,2.104,2.1066,2.1078,2.1097,2.1126,2.1131,2.1159,2.1168,2.1183,2.1202,2.1201,2.122,2.1226,2.1245,2.1249,2.1277,2.1282,2.1286,2.1287,2.1286,2.1286,2.1294,2.1292,2.1288,2.1288,2.1287,2.1287,0,2.1076,2.1085,2.1118,2.1137,2.1142,2.1162,2.1178,2.1195,2.1202,2.1227,2.1234,2.1245,2.1267,2.1274,2.1301,2.1304,2.1336,2.1335,2.1331,2.1331,2.1349,2.1348,2.1408,2.1417,2.1366,2.1367,2.1367,0,2.1103,2.1123,2.1144,2.1158,2.1168,2.119,2.1204,2.1209,2.1223,2.1244,2.1259,2.1281,2.13,2.1335,2.1345,2.1365,2.1365,2.1384,2.1368,2.1366,2.1365,2.1364,2.1366,2.1388,2.1388,2.1389,2.1389,0,2.115,2.1153,2.1173,2.1195,2.1212,2.1229,2.1245,2.1256,2.1264,2.128,2.1303,2.1317,2.1345,2.1367,2.1387,2.1396,2.1394,2.1394,2.14,2.14,2.1397,2.1399,2.134,2.1393,2.1393,2.1392,2.1392,2.1392,2.1182,2.12,2.1217,2.124,2.1253,2.1268,2.1286,2.1295,2.1315,2.1338,2.1339,2.1364,2.138,2.1407,2.1418,2.1437,2.1431,2.1439,2.1441,2.1443,2.1444,2.1393,2.144,2.144,2.144,2.144,2.144,0,2.1229,2.124,2.1261,2.1284,2.1301,2.1298,2.1316,2.133,2.1353,2.1368,2.1386,2.1412,2.1433,2.1444,2.1465,2.1478,2.1477,2.1483,2.1483,2.1485,2.1448,2.1442,2.1483,2.1483,2.1483,2.1483,2.1483,2.1483,2.1256,2.1286,2.1291,2.1326,2.1337,2.1362,2.1372,2.1386,2.1398,2.1428,2.1446,2.1453,2.1466,2.1488,2.1506,2.1509,2.1517,2.1523,2.1525,2.1492,2.1487,2.1483,2.1477,2.1525,2.1525,2.156,2.1561,2.1561]}]]